Medicine Lodge, KS

8:55 PM CST on December 11, 2017 (GMT -0600)
Medicine Lodge

Weather History for KP28 - August, 2013

Change the Weather History Date:

Monday, August 19, 2013

  Actual Average Record
Temperature  
Mean Temperature 77 °F 80 °F  
Max Temperature 88 °F 92 °F 109 °F (1899)
Min Temperature 66 °F 68 °F 52 °F (1956)
Degree Days  
Heating Degree Days 0 0  
Month to date heating degree days 0 0  
Since 1 June heating degree days 4 3  
Since 1 July heating degree days 0 0  
Cooling Degree Days 12 15  
Month to date cooling degree days 218 311  
Year to date cooling degree days 1240 1348  
Since 1 June cooling degree days 1097 1192  
Growing Degree Days 26 (Base 50)    
Moisture  
Dew Point 63 °F    
Average Humidity 65    
Maximum Humidity 87    
Minimum Humidity 43    
Precipitation  
Precipitation 0.00 in 0.11 in 2.22 in (1961)
Month to date precipitation 6.29 1.83  
Year to date precipitation 21.64 19.06  
Snow  
Snow 0.00 in 0.00 in - ()
Month to date snowfall 0.0 0.0  
Since 1 June snowfall 0.0 0.0  
Since 1 July snowfall 0.0 0.0  
Snow Depth 0.00 in    
Sea Level Pressure  
Sea Level Pressure 30.00 in    
Wind  
Wind Speed 8 mph (SSE)    
Max Wind Speed 17 mph    
Max Gust Speed 22 mph    
T = Trace of Precipitation, MM = Missing Value Source: NWS Daily Summary

Daily Weather History Graph

Daily Weather History Graph

Search for Another Location

Airport or City:

Trip Planner

Search our weather history database for the weather conditions in past years. The results will help you decide how hot, cold, wet, or windy it might be!

Date:

Astronomy

Aug. 19, 2013 Rise Set
Actual Time 6:54 AM CDT 8:20 PM CDT
Civil Twilight 6:26 AM CDT 8:48 PM CDT
Nautical Twilight 5:53 AM CDT 9:21 PM CDT
Astronomical Twilight 5:19 AM CDT 9:55 PM CDT
Moon 7:13 PM CDT (8/19) 5:15 AM CDT (8/19)
Length of Visible Light 14h 21m
Length of Day
13h 26m
Waxing Gibbous, 97% of the Moon is Illuminated
Aug 19
Waxing Gibbous
Aug 20
Full
Aug 28
Last Quarter
Sep 5
New
Sep 12
First Quarter

Hourly Weather History & Observations

Time (CDT) Temp. Heat Index Dew Point Humidity Pressure Visibility Wind Dir Wind Speed Gust Speed Precip Events Conditions
12:56 AM 69.1 °F - 63.0 °F 81% 30.06 in - SE 5.8 mph - N/A   Unknown
1:56 AM 68.0 °F - 63.0 °F 84% 30.05 in - SE 5.8 mph - N/A   Unknown
2:56 AM 66.9 °F - 63.0 °F 87% 30.04 in - SE 4.6 mph - N/A   Unknown
3:56 AM 66.9 °F - 63.0 °F 87% 30.03 in - ESE 4.6 mph - N/A   Unknown
4:56 AM 66.9 °F - 63.0 °F 87% 30.01 in - SE 4.6 mph - N/A   Unknown
5:56 AM 66.9 °F - 62.1 °F 84% 30.01 in - SE 5.8 mph - N/A   Unknown
6:56 AM 66.0 °F - 62.1 °F 87% 30.03 in - SE 5.8 mph - N/A   Unknown
7:56 AM 66.9 °F - 62.1 °F 84% 30.03 in - SE 6.9 mph - N/A   Unknown
8:56 AM 71.1 °F - 62.1 °F 73% 30.04 in - SSE 9.2 mph - N/A   Unknown
9:56 AM 75.0 °F - 62.1 °F 64% 30.04 in - SSE 10.4 mph - N/A   Unknown
10:56 AM 79.0 °F - 62.1 °F 56% 30.04 in - South 10.4 mph - N/A   Unknown
11:56 AM 81.0 °F 81.7 °F 61.0 °F 50% 30.04 in - South 10.4 mph 17.3 mph N/A   Unknown
12:56 PM 84.0 °F 84.5 °F 62.1 °F 47% 30.01 in - South 12.7 mph 21.9 mph N/A   Unknown
1:56 PM 86.0 °F 86.8 °F 63.0 °F 46% 30.01 in - South 12.7 mph 20.7 mph N/A   Unknown
2:56 PM 86.0 °F 86.3 °F 62.1 °F 44% 29.99 in - SSE 9.2 mph 20.7 mph N/A   Unknown
3:56 PM 87.1 °F 87.8 °F 63.0 °F 44% 29.97 in - South 11.5 mph 20.7 mph N/A   Unknown
4:56 PM 87.1 °F 87.8 °F 63.0 °F 44% 29.95 in - South 16.1 mph 20.7 mph N/A   Unknown
5:56 PM 87.1 °F 88.3 °F 64.0 °F 46% 29.94 in - South 10.4 mph - N/A   Unknown
6:56 PM 84.9 °F 86.1 °F 64.0 °F 49% 29.93 in - South 6.9 mph - N/A   Unknown
7:56 PM 82.0 °F 83.4 °F 64.0 °F 54% 29.93 in - SSE 8.1 mph - N/A   Unknown
8:56 PM 79.0 °F - 66.0 °F 64% 29.94 in - SSE 5.8 mph - N/A   Unknown
9:56 PM 77.0 °F - 66.0 °F 69% 29.96 in - SE 9.2 mph - N/A   Unknown
10:56 PM 75.0 °F - 64.9 °F 71% 29.97 in - SSE 8.1 mph - N/A   Unknown
11:56 PM 73.0 °F - 66.0 °F 79% 29.98 in - SSE 5.8 mph - N/A   Unknown